Find Starlink 34855

NORAD ID: 65416 Int'l Des: 2025-192 Owner: SPXS Country: US Constellation: starlink operational
LEOCIRCULAR

Aktuelle Ansicht

3D-Globus wird geladen...

Über Starlink 34855

Beschreibung wird geladen...

Nächste Überflüge

Passes for default location (London). Set your location on the main map for personalized predictions.

Höhenverlauf

Loading altitude history...

Zweizeiliger Elementsatz

1 65416U 25192N 26159.31395169 .00012959 00000-0 44878-3 0 9991
2 65416 53.1572 171.8026 0000981 76.3329 283.7781 15.30207809 43255
Epoch: 8. Juni 2026 • Age: 17 hours

Aktueller Status

Höhe 491.0 km
Geschwindigkeit 7.62 km/s
Subsatellitenpunkt -45.30°S, 145.32°W
Startdatum 31. Aug. 2025
Alter 0.7 years
Typ internet

Technische Details

Klassifizierung Payload
Masse 575.00 kg
Trockenmasse 530.00 kg
Gesamtmasse 575.00 kg
Länge 0.30 m
Durchmesser 4.10 m
Spannweite 29.00 m
Form Box + pan
Hersteller SPXS
Bus-Typ Starlink V2MO
Phasenstatus In Orbit
Besitzer/Staat SPXS/US

Most Searched